Lid_Strength_Index
17 17 17 18 18 18 18 18 19 18 19 19 19 19 19 19 20 20 20 20 20 20 20 19 19 19 20 20 19 19 19 19 20 18 17 16 16 15 14 13 12 12 11
17 17 18 18 18 18 18 18 19 19 19 19 19 19 19 19 19 19 20 19 20 20 19 19 19 18 20 19 19 19 18 18 18 19 16 16 16 14 14 14 12 10 10
18 18 18 18 18 18 19 19 19 19 19 19 19 19 19 19 19 19 19 19 19 19 19 19 19 19 19 19 19 19 18 16 17 17 17 15 15 13 13 12 12 11 9
18 18 18 18 18 18 18 19 19 19 19 19 19 19 19 19 18 18 18 19 19 18 18 18 18 18 18 18 18 17 16 16 16 16 16 15 14 12 12 13 13 11 11
18 18 18 18 18 18 18 19 19 19 19 19 19 19 18 18 18 18 18 19 19 19 18 18 17 17 15 15 16 16 16 16 16 16 15 14 13 13 13 12 12 11 11
18 18 18 18 18 18 19 19 19 19 19 19 19 19 19 18 15 14 17 18 18 18 18 18 17 17 15 12 11 10 11 16 21 21 14 13 12 12 12 12 11 13 15
18 18 18 18 18 18 18 19 19 19 19 19 19 19 19 18 14 13 14 18 18 18 18 17 17 16 15 15 13 11 10 9 9 11 12 11 12 11 11 11 11 12 13
18 18 18 18 18 18 18 19 19 19 19 19 18 18 18 18 14 13 13 17 17 17 17 17 16 15 15 15 14 14 14 13 12 11 10 10 10 9 8 9 11 14 13
18 18 17 17 18 18 18 19 18 18 18 18 17 17 17 17 13 13 13 16 16 16 16 16 15 15 13 11 12 15 14 12 9 7 6 6 6 6 7 11 17 19 16
17 17 17 17 17 18 18 18 17 16 17 17 17 17 17 16 14 12 12 16 18 16 16 14 12 13 11 10 12 15 14 12 12 13 11 11 10 11 9 11 13 17 16
16 17 17 16 16 16 17 16 16 16 17 17 18 17 18 18 18 13 12 15 15 17 15 15 14 10 9 8 8 11 12 10 11 11 14 15 14 13 13 12 11 12 15
16 16 16 16 15 15 15 16 16 16 17 18 19 20 20 20 17 14 11 10 11 16 15 14 14 10 9 8 8 7 6 6 14 18 19 17 15 15 13 12 11 12 11
16 15 15 15 15 15 15 17 18 18 19 19 20 19 20 20 19 13 11 10 9 10 12 12 10 9 8 8 7 6 7 13 15 17 16 16 15 14 13 13 13 12 12
16 17 18 18 19 19 18 18 18 19 19 19 19 19 23 21 19 18 17 16 12 11 11 15 12 9 8 8 11 10 10 12 13 14 14 15 14 15 16 14 16 15 17
19 20 20 19 19 21 20 19 19 22 18 22 22 21 21 21 19 15 17 21 23 17 16 22 20 18 15 15 15 15 13 14 14 14 15 16 16 16 16 16 17 18 19
21 20 20 20 21 21 21 23 17 17 14 13 14 18 21 15 13 12 11 10 9 9 11 15 15 15 15 14 14 13 14 14 14 14 16 17 18 18 18 18 18 20 20
20 22 22 22 22 22 23 21 21 18 13 12 12 12 13 14 11 10 10 10 10 13 18 22 22 20 18 16 15 14 14 14 14 15 16 18 19 21 22 21 20 19 21
22 22 22 22 22 22 21 22 21 19 20 23 15 14 12 12 12 12 12 16 24 23 26 26 26 24 23 23 21 18 18 17 17 18 18 20 21 23 26 22 21 23 23
23 24 24 24 25 23 23 23 24 23 23 26 26 21 21 15 14 14 16 27 29 28 28 28 28 29 27 26 23 23 22 20 21 22 22 22 22 24 28 22 22 21 21
25 24 24 25 25 25 24 24 25 24 25 25 27 26 28 26 28 30 31 32 32 32 32 32 32 33 31 29 27 29 28 27 25 22 22 22 23 23 22 23 24 24 26
26 26 25 26 26 27 26 25 24 25 25 28 26 23 20 28 30 30 31 31 32 33 32 33 31 33 32 30 31 30 30 26 25 21 22 23 23 24 23 23 27 29 24
28 28 28 28 27 26 27 25 26 26 26 25 27 26 17 26 30 30 32 33 33 33 32 34 32 31 30 29 28 26 25 25 27 21 23 22 22 24 25 28 31 29 25
27 28 28 30 28 27 28 30 29 29 30 29 27 26 29 31 31 32 32 33 34 33 33 34 33 29 29 29 27 24 22 25 24 23 22 22 24 25 30 34 33 34 30
28 28 27 29 29 28 29 31 30 28 27 28 30 31 27 30 31 31 33 32 33 33 33 32 30 28 27 28 29 27 25 25 28 25 24 23 24 29 35 35 33 32 28
29 28 28 28 29 28 26 27 26 29 29 26 28 29 31 32 33 34 33 33 33 32 29 28 27 27 27 26 26 28 28 22 24 25 28 27 30 34 35 35 34 32 29
29 28 29 29 28 29 28 26 26 26 25 25 27 30 31 32 31 32 31 32 29 28 27 26 26 27 27 25 26 25 25 21 23 24 27 30 31 32 34 34 34 31 28